Weather History for Novato, CA

Change the Weather History Date:

Thursday, June 21, 2012

  Actual Average (KAPC) Record (KAPC)
Temperature  
Mean Temperature 55 °F 65 °F  
Max Temperature 64 °F 79 °F 100 °F (2008)
Min Temperature 46 °F 51 °F 45 °F (2009)
Degree Days  
Heating Degree Days 10    
Month to date heating degree days  
Since 1 June heating degree days  
Since 1 July heating degree days  
Cooling Degree Days 0    
Month to date cooling degree days  
Year to date cooling degree days  
Since 1 June cooling degree days  
Growing Degree Days 5 (Base 50)    
Moisture  
Dew Point 50 °F    
Average Humidity 81    
Maximum Humidity 100    
Minimum Humidity 59    
Precipitation  
Precipitation 0.00 in - 0.00 in (2014)
Month to date precipitation  
Year to date precipitation  
Since 1 July precipitation  
Sea Level Pressure  
Sea Level Pressure 29.89 in    
Wind  
Wind Speed 7 mph (SW)    
Max Wind Speed 21 mph    
Max Gust Speed 30 mph    
Visibility 9 miles    
Events      
T = Trace of Precipitation, MM = Missing Value Source: NWS Daily Summary

Daily Weather History Graph

Daily Weather History Graph

Search for Another Location

Airport:

Trip Planner

Search our weather history database for the weather conditions in past years. The results will help you decide how hot, cold, wet, or windy it might be!

Date:

Astronomy

Jun. 21, 2012 Rise Set
Actual Time 5:47 AM PDT 8:36 PM PDT
Civil Twilight 5:15 AM PDT 9:08 PM PDT
Nautical Twilight 4:36 AM PDT 9:47 PM PDT
Astronomical Twilight 3:51 AM PDT 10:33 PM PDT
Moon 7:49 AM PDT (6/21) 10:05 PM PDT (6/21)
Length of Visible Light 15h 52m
Length of Day
14h 49m
Waxing Crescent, 5% of the Moon is Illuminated
Jun 21
Waxing Crescent
Jun 26
First Quarter
Jul 3
Full
Jul 10
Last Quarter
Jul 18
New

Hourly Weather History & Observations

Time (PDT) Temp. Dew Point Humidity Pressure Visibility Wind Dir Wind Speed Gust Speed Precip Events Conditions
12:15 AM 51.8 °F 50.0 °F 94% 29.83 in 8.0 mi Calm Calm - N/A   Clear
12:35 AM 50.0 °F 50.0 °F 100% 29.83 in 8.0 mi Calm Calm - N/A   Clear
12:55 AM 50.0 °F 50.0 °F 100% 29.82 in 8.0 mi Calm Calm - N/A   Clear
1:15 AM 50.0 °F 50.0 °F 100% 29.83 in 8.0 mi Calm Calm - N/A   Clear
1:35 AM 51.8 °F 50.0 °F 94% 29.82 in 8.0 mi NW 3.5 mph - N/A   Clear
2:15 AM 48.2 °F 48.2 °F 100% 29.82 in 7.0 mi North 4.6 mph - N/A   Clear
2:35 AM 48.2 °F 48.2 °F 100% 29.82 in 8.0 mi NNW 5.8 mph - N/A   Clear
2:55 AM 48.2 °F 48.2 °F 100% 29.83 in 10.0 mi Calm Calm - N/A   Clear
3:15 AM 50.0 °F 48.2 °F 94% 29.83 in 8.0 mi North 3.5 mph - N/A   Clear
3:35 AM 50.0 °F 50.0 °F 100% 29.83 in 10.0 mi Calm Calm - N/A   Clear
3:55 AM 51.8 °F 50.0 °F 94% 29.83 in 10.0 mi Calm Calm - N/A   Clear
4:15 AM 50.0 °F 50.0 °F 100% 29.83 in 8.0 mi Calm Calm - N/A   Clear
4:35 AM 50.0 °F 50.0 °F 100% 29.83 in 8.0 mi SE 3.5 mph - N/A   Clear
4:55 AM 50.0 °F 50.0 °F 100% 29.83 in 10.0 mi East 4.6 mph - N/A   Clear
5:15 AM 48.2 °F 48.2 °F 100% 29.83 in 5.0 mi East 3.5 mph - N/A   Clear
5:35 AM 48.2 °F 48.2 °F 100% 29.84 in 8.0 mi Calm Calm - N/A   Clear
5:55 AM 48.2 °F 48.2 °F 100% 29.84 in 7.0 mi Calm Calm - N/A   Clear
6:15 AM 46.4 °F 46.4 °F 100% 29.85 in 5.0 mi Calm Calm - N/A   Clear
6:35 AM 50.0 °F 50.0 °F 100% 29.86 in 4.0 mi Calm Calm - N/A   Clear
6:55 AM 50.0 °F 50.0 °F 100% 29.86 in 4.0 mi Calm Calm - N/A   Partly Cloudy
7:15 AM 51.8 °F 51.8 °F 100% 29.87 in 10.0 mi WSW 9.2 mph 16.1 mph N/A   Scattered Clouds
7:35 AM 53.6 °F 50.0 °F 88% 29.88 in 10.0 mi WSW 8.1 mph - N/A   Mostly Cloudy
7:55 AM 53.6 °F 50.0 °F 88% 29.88 in 10.0 mi WSW 11.5 mph 16.1 mph N/A   Unknown
8:15 AM 53.6 °F 50.0 °F 88% 29.89 in 10.0 mi WSW 10.4 mph - N/A   Unknown
8:35 AM 53.6 °F 50.0 °F 88% 29.89 in 10.0 mi SW 10.4 mph 16.1 mph N/A   Unknown
8:55 AM 53.6 °F 50.0 °F 88% 29.90 in 10.0 mi WSW 13.8 mph 18.4 mph N/A   Unknown
9:15 AM 55.4 °F 50.0 °F 82% 29.90 in 10.0 mi SW 10.4 mph - N/A   Unknown
9:35 AM 55.4 °F 50.0 °F 82% 29.91 in 10.0 mi WSW 9.2 mph - N/A   Unknown
9:55 AM 55.4 °F 50.0 °F 82% 29.91 in 10.0 mi WSW 11.5 mph 17.3 mph N/A   Overcast
10:15 AM 57.2 °F 50.0 °F 77% 29.91 in 10.0 mi WSW 9.2 mph 17.3 mph N/A   Mostly Cloudy
10:35 AM 57.2 °F 50.0 °F 77% 29.91 in 10.0 mi SW 13.8 mph - N/A   Scattered Clouds
10:55 AM 59.0 °F 50.0 °F 72% 29.91 in 10.0 mi SW 18.4 mph 24.2 mph N/A   Partly Cloudy
11:15 AM 59.0 °F 50.0 °F 72% 29.91 in 10.0 mi SW 15.0 mph 23.0 mph N/A   Clear
11:35 AM 59.0 °F 50.0 °F 72% 29.91 in 10.0 mi SW 16.1 mph 23.0 mph N/A   Clear
11:55 AM 60.8 °F 50.0 °F 68% 29.91 in 10.0 mi SW 17.3 mph 21.9 mph N/A   Clear
12:15 PM 62.6 °F 50.0 °F 63% 29.91 in 10.0 mi SW 17.3 mph - N/A   Clear
12:35 PM 62.6 °F 50.0 °F 63% 29.92 in 10.0 mi SW 16.1 mph 25.3 mph N/A   Clear
12:55 PM 62.6 °F 50.0 °F 63% 29.91 in 10.0 mi SW 17.3 mph 20.7 mph N/A   Clear
1:15 PM 62.6 °F 50.0 °F 63% 29.91 in 10.0 mi WSW 20.7 mph 25.3 mph N/A   Clear
1:35 PM 62.6 °F 50.0 °F 63% 29.91 in 10.0 mi SW 19.6 mph 29.9 mph N/A   Clear
1:55 PM 62.6 °F 50.0 °F 63% 29.91 in 10.0 mi WSW 15.0 mph 27.6 mph N/A   Clear
2:15 PM 62.6 °F 50.0 °F 63% 29.91 in 10.0 mi WSW 20.7 mph 28.8 mph N/A   Clear
2:35 PM 62.6 °F 50.0 °F 63% 29.91 in 10.0 mi WSW 20.7 mph 26.5 mph N/A   Clear
2:55 PM 64.4 °F 50.0 °F 59% 29.91 in 10.0 mi WSW 18.4 mph 27.6 mph N/A   Clear
3:15 PM 62.6 °F 50.0 °F 63% 29.91 in 10.0 mi SW 19.6 mph 26.5 mph N/A   Clear
3:35 PM 62.6 °F 50.0 °F 63% 29.92 in 10.0 mi WSW 16.1 mph 24.2 mph N/A   Clear
3:55 PM 59.0 °F 50.0 °F 72% 29.92 in 10.0 mi WSW 9.2 mph 25.3 mph N/A   Clear
4:15 PM 62.6 °F 50.0 °F 63% 29.91 in 10.0 mi SW 18.4 mph 24.2 mph N/A   Clear
4:35 PM 62.6 °F 50.0 °F 63% 29.91 in 10.0 mi SW 16.1 mph 23.0 mph N/A   Clear
4:55 PM 62.6 °F 50.0 °F 63% 29.91 in 10.0 mi WSW 16.1 mph 24.2 mph N/A   Clear
5:15 PM 62.6 °F 50.0 °F 63% 29.91 in 10.0 mi SW 17.3 mph 24.2 mph N/A   Clear
5:35 PM 62.6 °F 50.0 °F 63% 29.91 in 10.0 mi SW 17.3 mph 26.5 mph N/A   Clear
5:55 PM 60.8 °F 50.0 °F 68% 29.91 in 10.0 mi SW 17.3 mph 28.8 mph N/A   Clear
6:15 PM 60.8 °F 50.0 °F 68% 29.92 in 10.0 mi SSW 15.0 mph 19.6 mph N/A   Clear
6:35 PM 59.0 °F 50.0 °F 72% 29.92 in 10.0 mi SSW 10.4 mph 18.4 mph N/A   Clear
6:55 PM 59.0 °F 50.0 °F 72% 29.93 in 10.0 mi Calm Calm - N/A   Scattered Clouds
7:15 PM 59.0 °F 50.0 °F 72% 29.93 in 10.0 mi SE 6.9 mph - N/A   Scattered Clouds
7:35 PM 57.2 °F 50.0 °F 77% 29.94 in 10.0 mi SW 11.5 mph 18.4 mph N/A   Mostly Cloudy
7:55 PM 55.4 °F 50.0 °F 82% 29.95 in 10.0 mi SSW 8.1 mph 16.1 mph N/A   Mostly Cloudy
8:15 PM 55.4 °F 50.0 °F 82% 29.95 in 10.0 mi WSW 12.7 mph 18.4 mph N/A   Mostly Cloudy
8:35 PM 55.4 °F 50.0 °F 82% 29.95 in 10.0 mi WNW 6.9 mph 16.1 mph N/A   Mostly Cloudy
8:55 PM 55.4 °F 50.0 °F 82% 29.94 in 10.0 mi SE 5.8 mph - N/A   Scattered Clouds
9:35 PM 55.4 °F 48.2 °F 77% 29.94 in 10.0 mi South 10.4 mph 19.6 mph N/A   Clear
9:55 PM 55.4 °F 48.2 °F 77% 29.95 in 10.0 mi SW 10.4 mph - N/A   Clear
10:15 PM 53.6 °F 48.2 °F 82% 29.96 in 10.0 mi East 3.5 mph - N/A   Clear
10:35 PM 53.6 °F 48.2 °F 82% 29.96 in 10.0 mi SW 11.5 mph - N/A   Clear
10:55 PM 53.6 °F 48.2 °F 82% 29.96 in 10.0 mi SW 9.2 mph - N/A   Clear
11:15 PM 53.6 °F 48.2 °F 82% 29.96 in 10.0 mi SW 5.8 mph - N/A   Clear
11:35 PM 53.6 °F 48.2 °F 82% 29.95 in 10.0 mi WSW 4.6 mph - N/A   Partly Cloudy